SCP
0 0 0 0 0 0 0 0 0 0 0 0 0 0 0 0 0 0 0 0 0 0 0 0 0 0 0 0 0 0 0 0
0 0 0 0 0 0 0 0 0 0 0 0 0 0 0 0 0 0 0 0 0 0 0 0 0 0 0 0 0 0 0 0
0 0 0 0 0 0 0 0 0 0 0 0 0 0 0 0 0 0 0 0 0 0 0 0 0 0 0 0 0 0 0 0
0 0 0 0 0 0 0 0 0 0 0 0 0 0 0 0 0 0 0 0 0 0 0 0 0 0 0 0 0 0 0 0
0 0 0 0 0 0 0 0 0 0 0 0 0 0 0 0 0 0 0 0 0 0 0 0 0 0 0 0 0 0 0 0
0 0 0 0 0 0 0 0 0 0 -0 -0 0 -0 0 -0 0 0 0 0 0 0 0 0 0 0 0 0 0 0 0 0
0 0 0 0 0 0 0 0 -0 -0 -0 -0 -0 -0 -0 -0 -0 -0 0 0 0 0 0 0 0 0 0 0 0 0 0 0
0 0 0 0 0 0 0 -0 -0 -0 -0 -0 -0 -0 -0 -0 -0 -0 0 0 0 0 0 0 0 0 0 0 0 0 0 0
0 0 0 0 0 0 -0 -0 -0 -0 -0 -0 -0 -0 -0 0 -0 -0 0 0 0 0 0 0 0 0 0 0 0 0 0 0
0 0 0 0 -0 -0 -0 -0 -0 -0 -0 -0 -0 -0 -0 -0 -0 -0 -0 0 0 0 0 0 0 0 0 0 0 0 0 0
0 0 0 0 0 -0 -0 -0 -0 -0 -0 -0 -0 -0 -0 -0 -0 0 0 0 0 0 0 0 0 0 0 0 0 0 0 0
0 0 0 0 0 0 -0 -0 -0 -0 -0 -0 -0 -0 -0 -0 -0 -0 0 0 0 0 0 0 0 0 0 0 0 0 0 0
0 0 0 0 0 -0 -0 -0 -0 -0 -0 -0 -0 -0 -0 0 0 0 0 0 0 0 0 0 0 0 0 0 0 0 0 0
0 0 0 0 0 0 0 -0 -0 -0 0 0 0 0 0 0 0 0 0 0 0 0 0 0 0 0 0 0 0 0 0 0
0 0 0 0 0 -0 -0 0 0 0 0 0 0 0 0 0 0 0 0 0 0 0 0 0 0 0 0 0 0 0 0 0
0 0 0 0 0 0 0 0 0 0 0 0 -0 0 0 0 0 0 0 0 0 0 0 0 0 0 0 0 0 0 0 0
0 0 0 0 0 0 0 0 0 0 0 0 0 -0 -0 0 0 0 0 0 0 0 0 0 0 0 0 0 0 0 0 0
0 0 0 0 0 0 0 0 0 0 0 0 0 0 0 0 0 0 0 0 0 0 0 0 0 0 0 0 0 0 0 0
0 0 0 0 0 0 0 0 0 0 0 0 0 0 0 0 0 -0 0 0 0 0 0 0 0 0 0 0 0 0 0 0
0 0 0 0 0 0 0 0 0 0 0 0 0 0 0 0 0 0 0 -0 0 0 0 0 0 0 0 0 0 0 0 0
Wind_Speed_500mb
34 31 30 29 29 28 31 34 35 35 37 39 40 39 39 42 47 49 49 49 50 51 58 63 68 69 71 75 77 77 81 82
32 30 29 28 27 30 32 36 37 40 42 43 44 44 44 45 47 51 55 55 55 54 54 58 61 64 67 72 74 79 80 82
27 27 28 30 31 34 37 40 42 45 48 51 53 56 55 55 55 54 56 56 57 56 56 54 56 59 64 68 71 75 78 80
22 28 30 32 33 34 38 41 43 45 47 51 54 59 63 65 66 67 68 63 59 58 57 55 53 53 59 64 66 69 72 74
25 31 33 37 40 38 42 47 50 52 54 56 58 61 65 69 72 72 71 74 72 65 62 62 59 60 61 62 68 74 77 77
30 32 32 35 41 43 53 56 56 58 59 62 64 64 67 70 70 73 75 75 75 76 72 66 65 61 64 69 71 70 72 72
17 28 38 45 50 55 60 64 67 68 68 68 70 72 72 73 75 77 77 78 79 76 75 76 72 66 65 67 71 74 76 76
23 33 44 50 57 64 67 68 69 71 73 76 77 76 75 78 78 76 80 83 82 80 77 75 75 75 69 68 72 75 74 76
27 36 43 50 53 57 60 66 70 73 77 79 83 86 86 82 82 82 80 81 87 89 82 77 74 68 71 70 70 72 73 75
30 38 43 49 53 58 60 66 71 76 78 79 81 85 88 88 88 87 87 87 85 86 87 80 76 67 62 63 69 72 71 68
29 33 38 45 51 56 62 67 72 76 78 80 81 83 86 88 90 86 83 87 86 86 81 77 77 66 59 57 61 68 69 67
29 37 43 46 49 52 57 63 68 73 79 82 82 83 81 83 80 81 80 76 79 82 81 78 68 65 60 58 59 60 62 63
27 32 37 41 45 51 57 63 69 76 81 82 83 82 82 81 79 73 70 69 73 75 82 79 73 63 60 56 54 56 58 56
24 27 31 38 46 51 57 66 72 74 78 80 78 76 72 72 69 65 55 57 60 63 75 79 73 67 59 54 52 52 54 48
21 25 32 37 42 49 55 59 63 68 71 74 73 70 64 59 54 40 57 63 65 66 73 78 75 64 55 51 47 48 51 49
23 28 32 36 40 44 47 50 53 56 62 68 69 68 66 57 56 47 38 41 50 52 56 52 56 51 44 40 37 39 37 35
20 25 30 32 34 36 41 47 50 53 56 60 63 64 64 65 58 44 39 35 41 39 42 37 27 23 24 24 25 24 20 17
18 23 26 28 31 34 38 42 45 48 50 51 54 56 59 58 59 63 49 38 38 40 38 35 39 28 24 25 25 17 11 3
16 18 22 26 29 32 35 38 40 41 43 47 48 49 49 50 49 48 54 58 52 46 51 46 44 40 31 25 13 22 32 37
12 16 21 25 29 31 34 35 38 40 42 43 42 43 43 43 44 46 49 52 56 50 47 50 44 40 38 42 48 46 44 43
Wind_Direction_500mb
75 68 60 50 40 31 23 17 11 6 0 357 353 347 338 327 318 313 311 308 301 289 278 277 278 280 279 278 279 278 275 272
63 56 51 39 28 22 13 7 3 358 353 348 345 343 340 336 331 323 315 311 307 301 292 282 277 277 279 279 279 278 277 275
49 39 36 26 16 12 5 1 359 355 351 346 341 339 338 335 332 329 324 320 309 303 297 290 285 279 277 279 279 278 278 278
30 21 19 12 7 3 357 355 352 348 345 339 336 335 334 333 331 329 325 322 317 306 296 289 286 284 281 279 280 278 277 277
9 4 360 356 355 353 351 349 345 340 337 335 333 331 328 326 325 325 323 321 318 315 305 292 283 278 279 278 277 277 277 276
338 330 339 341 344 343 341 340 339 336 335 332 331 328 324 320 319 318 319 318 318 313 310 303 290 282 277 274 273 271 273 276
325 328 337 337 339 337 338 337 337 335 334 332 329 326 324 320 317 316 315 314 313 313 309 306 302 290 279 277 275 271 267 267
326 333 338 337 336 336 337 336 336 335 335 334 331 328 326 323 320 317 313 311 310 309 308 304 301 300 290 277 275 275 271 265
324 333 333 334 334 334 336 336 336 336 337 336 333 330 329 326 323 319 315 311 308 308 306 305 302 299 297 292 282 276 273 269
329 332 336 337 342 344 342 341 340 340 340 338 336 332 330 327 324 322 316 312 310 307 307 307 304 306 303 298 290 285 282 280
336 340 342 345 347 346 344 344 344 344 343 342 340 335 331 327 324 322 317 312 310 308 309 309 308 308 302 296 293 291 290 287
345 349 349 348 351 350 350 352 350 348 347 346 343 339 336 329 327 323 319 313 312 312 311 309 308 305 299 293 289 291 292 289
358 2 2 358 358 0 359 357 356 355 351 348 346 343 340 335 332 327 325 323 321 314 310 310 308 303 296 289 286 286 285 289
15 17 12 9 6 5 4 4 2 359 356 353 350 346 343 339 339 342 344 341 333 326 321 316 314 303 297 291 284 281 281 282
22 21 20 17 14 10 8 7 4 2 1 0 357 352 351 348 352 3 351 337 336 335 332 327 324 316 307 300 289 283 281 281
28 27 24 20 15 9 6 5 5 4 4 7 5 3 358 355 355 344 330 348 353 351 354 354 347 328 316 312 305 294 288 286
30 27 23 18 12 6 5 5 3 6 7 7 7 8 6 0 354 355 348 329 329 335 0 357 3 359 334 325 308 308 306 282
28 23 17 14 10 7 7 5 3 5 7 8 8 9 8 8 5 356 358 3 5 9 356 9 7 358 355 4 350 338 311 109
29 13 9 8 5 4 5 3 2 4 5 7 7 8 9 9 10 9 10 7 8 23 26 26 25 20 20 29 353 62 67 70
13 360 -0 2 1 1 3 1 2 2 4 5 5 6 6 7 9 10 14 14 13 12 24 25 26 31 35 41 49 52 53 51
Wind_Speed_850mb
34 31 30 29 29 28 31 34 35 35 37 39 40 39 39 42 47 49 49 49 50 51 58 63 68 69 71 75 77 77 81 82
32 30 29 28 27 30 32 36 37 40 42 43 44 44 44 45 47 51 55 55 55 54 54 58 61 64 67 72 74 79 80 82
27 27 28 30 31 34 37 40 42 45 48 51 53 56 55 55 55 54 56 56 57 56 56 54 56 59 64 68 71 75 78 80
22 28 30 32 33 34 38 41 43 45 47 51 54 59 63 65 66 67 68 63 59 58 57 55 53 53 59 64 66 69 72 74
25 31 33 37 40 38 42 47 50 52 54 56 58 61 65 69 72 72 71 74 72 65 62 62 59 60 61 62 68 74 77 77
30 32 32 35 41 43 53 56 56 58 59 62 64 64 67 70 70 73 75 75 75 76 72 66 65 61 64 69 71 70 72 72
17 28 38 45 50 55 60 64 67 68 68 68 70 72 72 73 75 77 77 78 79 76 75 76 72 66 65 67 71 74 76 76
23 33 44 50 57 64 67 68 69 71 73 76 77 76 75 78 78 76 80 83 82 80 77 75 75 75 69 68 72 75 74 76
27 36 43 50 53 57 60 66 70 73 77 79 83 86 86 82 82 82 80 81 87 89 82 77 74 68 71 70 70 72 73 75
30 38 43 49 53 58 60 66 71 76 78 79 81 85 88 88 88 87 87 87 85 86 87 80 76 67 62 63 69 72 71 68
29 33 38 45 51 56 62 67 72 76 78 80 81 83 86 88 90 86 83 87 86 86 81 77 77 66 59 57 61 68 69 67
29 37 43 46 49 52 57 63 68 73 79 82 82 83 81 83 80 81 80 76 79 82 81 78 68 65 60 58 59 60 62 63
27 32 37 41 45 51 57 63 69 76 81 82 83 82 82 81 79 73 70 69 73 75 82 79 73 63 60 56 54 56 58 56
24 27 31 38 46 51 57 66 72 74 78 80 78 76 72 72 69 65 55 57 60 63 75 79 73 67 59 54 52 52 54 48
21 25 32 37 42 49 55 59 63 68 71 74 73 70 64 59 54 40 57 63 65 66 73 78 75 64 55 51 47 48 51 49
23 28 32 36 40 44 47 50 53 56 62 68 69 68 66 57 56 47 38 41 50 52 56 52 56 51 44 40 37 39 37 35
20 25 30 32 34 36 41 47 50 53 56 60 63 64 64 65 58 44 39 35 41 39 42 37 27 23 24 24 25 24 20 17
18 23 26 28 31 34 38 42 45 48 50 51 54 56 59 58 59 63 49 38 38 40 38 35 39 28 24 25 25 17 11 3
16 18 22 26 29 32 35 38 40 41 43 47 48 49 49 50 49 48 54 58 52 46 51 46 44 40 31 25 13 22 32 37
12 16 21 25 29 31 34 35 38 40 42 43 42 43 43 43 44 46 49 52 56 50 47 50 44 40 38 42 48 46 44 43
Wind_Direction_850mb
75 68 60 50 40 31 23 17 11 6 0 357 353 347 338 327 318 313 311 308 301 289 278 277 278 280 279 278 279 278 275 272
63 56 51 39 28 22 13 7 3 358 353 348 345 343 340 336 331 323 315 311 307 301 292 282 277 277 279 279 279 278 277 275
49 39 36 26 16 12 5 1 359 355 351 346 341 339 338 335 332 329 324 320 309 303 297 290 285 279 277 279 279 278 278 278
30 21 19 12 7 3 357 355 352 348 345 339 336 335 334 333 331 329 325 322 317 306 296 289 286 284 281 279 280 278 277 277
9 4 360 356 355 353 351 349 345 340 337 335 333 331 328 326 325 325 323 321 318 315 305 292 283 278 279 278 277 277 277 276
338 330 339 341 344 343 341 340 339 336 335 332 331 328 324 320 319 318 319 318 318 313 310 303 290 282 277 274 273 271 273 276
325 328 337 337 339 337 338 337 337 335 334 332 329 326 324 320 317 316 315 314 313 313 309 306 302 290 279 277 275 271 267 267
326 333 338 337 336 336 337 336 336 335 335 334 331 328 326 323 320 317 313 311 310 309 308 304 301 300 290 277 275 275 271 265
324 333 333 334 334 334 336 336 336 336 337 336 333 330 329 326 323 319 315 311 308 308 306 305 302 299 297 292 282 276 273 269
329 332 336 337 342 344 342 341 340 340 340 338 336 332 330 327 324 322 316 312 310 307 307 307 304 306 303 298 290 285 282 280
336 340 342 345 347 346 344 344 344 344 343 342 340 335 331 327 324 322 317 312 310 308 309 309 308 308 302 296 293 291 290 287
345 349 349 348 351 350 350 352 350 348 347 346 343 339 336 329 327 323 319 313 312 312 311 309 308 305 299 293 289 291 292 289
358 2 2 358 358 0 359 357 356 355 351 348 346 343 340 335 332 327 325 323 321 314 310 310 308 303 296 289 286 286 285 289
15 17 12 9 6 5 4 4 2 359 356 353 350 346 343 339 339 342 344 341 333 326 321 316 314 303 297 291 284 281 281 282
22 21 20 17 14 10 8 7 4 2 1 0 357 352 351 348 352 3 351 337 336 335 332 327 324 316 307 300 289 283 281 281
28 27 24 20 15 9 6 5 5 4 4 7 5 3 358 355 355 344 330 348 353 351 354 354 347 328 316 312 305 294 288 286
30 27 23 18 12 6 5 5 3 6 7 7 7 8 6 0 354 355 348 329 329 335 0 357 3 359 334 325 308 308 306 282
28 23 17 14 10 7 7 5 3 5 7 8 8 9 8 8 5 356 358 3 5 9 356 9 7 358 355 4 350 338 311 109
29 13 9 8 5 4 5 3 2 4 5 7 7 8 9 9 10 9 10 7 8 23 26 26 25 20 20 29 353 62 67 70
13 360 -0 2 1 1 3 1 2 2 4 5 5 6 6 7 9 10 14 14 13 12 24 25 26 31 35 41 49 52 53 51